Weather in Volma

Russia / Novgorod Oblast     58°26′55″N   32°43′33″E
temp.,
°C
wind,
m/s
gust,
m/s
humid.,
%
clouds,
%
prec.,
mm/h
press.,
hPa
HPBL,
m
4 march, thu
thu400:00+1w61397100 0.9 1001910
03:000nw61193100 3.9 1001900
06:00−3nw4119264 0.3 1001550
09:00−4nw389047 0.3 1002513
12:00−2nw358184 0.0 1002745
15:00−2nw357990 0.1 1002870
18:00−4nnw249197 0.2 1003179
21:00−5n489199 0.9 1004751
5 march, fri
fri500:00−7nnw399477 0.1 1005410
03:00−7wnw279780 0.1 1006334
06:00−7wnw379599 0.2 1007443
09:00−7nw359199 0.4 1008509
12:00−6nw3582100 0.2 1010664
15:00−5nw3578100 0.4 1011839
18:00−6nnw2683100 0.2 1013601
21:00−10n229068 0.3 101575
6 march, sat
sat600:00−11nnw11889 0.0 101721
03:00−11wsw129144 0.0 101735
06:00−9w259698 0.3 1017271
09:00−8w369399 0.5 1017380
12:00−6wsw3681100 0.1 1016739
15:00−4wsw5871100 0.1 10131061
18:00−5sw61272100 0.0 10081055
21:00−5sw81793100 1.7 10031295
7 march, sun
sun700:00−3sw81695100 2.8 9961269
03:00−2wsw81695100 5.4 9921275
06:00−5wnw61389100 4.6 9911385
09:00−9wsw2108369 4.6 992487
12:00−5wsw587572 0.1 9921221
15:00−6w698586 0.8 9921051
18:00−8wnw387772 0.6 992854
21:00−11n229686 0.8 99557
8 march, mon
mon800:00−12nnw399587 0.1 998304
03:00−12wnw399694 0.1 1002427
06:00−12nnw41193100 0.2 1004764
09:00−13nnw51091100 0.3 1008611
12:00−12nnw5887100 0.1 1011668
15:00−11nnw5985100 0.2 1014711
18:00−13nnw4988100 0.0 1016691
21:00−16nnw3109592 0.1 1019377